Regional Weather Roundup
Issued by NWS

Home | Current Version | Previous Version | Text Only | Print | Product List | Glossary Off
Versions: 1 2 3 4 5 6 7 8 9 10 11 12 13 14 15 16 17 18 19 20 21 22 23 24 25 26 27 28 29 30 31 32 33 34 35 36 37 38 39 40 41 42 43 44 45 46 47 48 49 50

000
ASUS43 KFSD 281202
RWRSD

WEATHER ROUNDUP FOR SOUTH DAKOTA
NATIONAL WEATHER SERVICE SIOUX FALLS SD
700 AM CDT SAT MAR 28 2015

NOTE: "FAIR" INDICATES FEW OR NO CLOUDS BELOW 12,000 FEET WITH NO
SIGNIFICANT WEATHER AND/OR OBSTRUCTIONS TO VISIBILITY.


SDZ001>005-009-010-012>017-281300-
NORTHWEST AND NORTH CENTRAL SOUTH DAKOTA

CITY           SKY/WX    TMP DP  RH WIND       PRES   REMARKS
BUFFALO          N/A     38  32  79 SE6       29.83S
FAITH            N/A     34  29  82 S13       29.92F WCI  25
MOBRIDGE       CLEAR     24  21  88 E10       29.96F WCI  14
$$

SDZ012>016-024>037-041>051-057-063-072>074-281300-
SOUTHWEST AND SOUTH CENTRAL SOUTH DAKOTA

CITY           SKY/WX    TMP DP  RH WIND       PRES   REMARKS
RAPID CTY ARPT CLEAR     37  30  75 CALM      29.92S
PIERRE         CLEAR     23  22  96 E5        29.98S WCI  17
CUSTER         CLEAR     41  26  55 NW3       29.98S
ELLSWORTH AFB  CLEAR     41  32  69 S5        29.91S
PHILIP         CLEAR     25  22  88 W3        29.95S
PINE RIDGE     CLEAR     28  25  88 CALM      29.95S
SPEARFISH      FAIR      43  28  56 CALM      29.92S
WINNER         FAIR      32  27  81 S6        29.99R WCI  26
$$

SDZ004>011-016>023-039-040-281300-
NORTHEAST SOUTH DAKOTA

CITY           SKY/WX    TMP DP  RH WIND       PRES   REMARKS
ABERDEEN       CLOUDY    31  25  78 S10       30.07R WCI  22
WATERTOWN      CLOUDY    28  24  85 S8        30.07R WCI  20
SISSETON         N/A     20  19  96 SE3       30.11R
$$

SDZ017-020-022-023-036>040-048>070-281300-
SOUTHEAST SOUTH DAKOTA

CITY           SKY/WX    TMP DP  RH WIND       PRES   REMARKS
SIOUX FALLS    PTCLDY    29  25  85 SE9       30.10S WCI  20
HURON          CLOUDY    30  24  78 SE9       30.08R WCI  22
MITCHELL       CLEAR     26  22  84 SE9       30.08R WCI  17
YANKTON        CLEAR     25  19  80 E7        30.10R WCI  17
$$

ABBREVIATIONS USED IN REMARKS
   TC - TEMPERATURE IN CELSIUS
  WCI - WIND CHILL INDEX
   HX - HEAT INDEX
  VSB - VISIBILITY




USA.gov is the U.S. government's official web portal to all federal, state and local government web resources and services.